Stations météo

Publicité
Cluanie Inn No 3, Grande-Bretagne (99117): Température de l'air & dewpoint: 10.02.2019 18:00:00 - 16.02.2019 18:00:00 (GMT)Cluanie Inn No 3, Grande-Bretagne (99117): Quantités de précipitations: 10.02.2019 18:00:00 - 16.02.2019 18:00:00 (GMT)
Date & Time tt [°C] td [°C] rr [mm]
16.02.2019 18:00:00 - - -
16.02.2019 17:00:00 - - -
16.02.2019 16:00:00 8,4 2,6 0,0
16.02.2019 15:00:00 8,6 2,5 0,0
16.02.2019 14:00:00 8,5 4,4 0,0
16.02.2019 13:00:00 8,5 4,4 0,0
16.02.2019 12:00:00 8,2 3,1 0,0
16.02.2019 11:00:00 8,4 5,4 0,0
16.02.2019 10:00:00 8,1 6,7 0,0
16.02.2019 09:00:00 7,3 7,0 0,0
16.02.2019 08:00:00 7,2 7,0 0,0
16.02.2019 07:00:00 7,4 7,1 0,0
16.02.2019 06:00:00 7,6 6,7 0,0
16.02.2019 05:00:00 7,6 6,7 0,0
16.02.2019 04:00:00 7,9 6,3 0,0
16.02.2019 03:00:00 7,5 6,0 0,0
16.02.2019 02:00:00 8,0 5,6 0,0
16.02.2019 01:00:00 8,2 5,4 0,0
16.02.2019 00:00:00 8,1 4,4 0,0
15.02.2019 23:00:00 10,1 6,5 0,0
15.02.2019 22:00:00 10,0 7,0 0,0
15.02.2019 21:00:00 9,1 7,0 0,0
15.02.2019 20:00:00 8,6 7,0 0,0
15.02.2019 19:00:00 9,3 6,7 0,0
15.02.2019 18:00:00 9,5 5,8 0,0
15.02.2019 17:00:00 9,6 5,5 0,0
15.02.2019 16:00:00 10,0 5,2 0,0
15.02.2019 15:00:00 10,5 4,3 0,0
15.02.2019 14:00:00 11,4 3,5 0,0
15.02.2019 13:00:00 10,7 3,0 0,0
15.02.2019 12:00:00 11,5 2,9 0,0
15.02.2019 11:00:00 11,1 3,1 0,0
15.02.2019 10:00:00 10,4 2,2 0,0
15.02.2019 09:00:00 9,8 -1,5 0,0
15.02.2019 08:00:00 9,1 -4,7 0,0
15.02.2019 07:00:00 7,3 -3,1 0,0
15.02.2019 06:00:00 9,7 -3,3 0,0
15.02.2019 05:00:00 9,7 -0,4 0,0
15.02.2019 04:00:00 9,5 0,5 0,0
15.02.2019 03:00:00 9,8 0,4 0,0
15.02.2019 02:00:00 9,8 -0,2 0,0
15.02.2019 01:00:00 10,1 -0,3 0,0
15.02.2019 00:00:00 10,2 -1,4 0,0
14.02.2019 23:00:00 11,0 -1,7 0,0
14.02.2019 22:00:00 9,4 1,5 0,0
14.02.2019 21:00:00 7,2 2,8 0,0
14.02.2019 20:00:00 8,0 3,2 0,0
14.02.2019 19:00:00 9,1 3,6 0,0
14.02.2019 18:00:00 9,2 3,9 0,0
14.02.2019 17:00:00 8,4 4,3 0,0
14.02.2019 16:00:00 9,3 4,5 0,0
14.02.2019 15:00:00 9,7 5,8 0,0
14.02.2019 14:00:00 10,2 7,0 0,0
14.02.2019 13:00:00 9,4 7,1 0,0
14.02.2019 12:00:00 9,0 7,3 0,0
14.02.2019 11:00:00 9,5 7,3 0,0
14.02.2019 10:00:00 9,3 7,8 0,0
14.02.2019 09:00:00 9,7 6,9 0,0
14.02.2019 08:00:00 10,3 6,8 0,0
14.02.2019 07:00:00 10,9 6,3 0,0
14.02.2019 06:00:00 10,9 6,5 0,0
14.02.2019 05:00:00 10,6 7,0 0,0
14.02.2019 04:00:00 10,5 7,0 0,0
14.02.2019 03:00:00 10,1 7,2 0,0
14.02.2019 02:00:00 10,0 7,5 0,0
14.02.2019 01:00:00 10,2 7,7 0,0
14.02.2019 00:00:00 9,9 7,5 0,0
13.02.2019 23:00:00 10,0 7,4 0,0
13.02.2019 22:00:00 9,5 7,0 0,0
13.02.2019 21:00:00 9,9 5,9 0,0
13.02.2019 20:00:00 9,9 6,1 0,0
13.02.2019 19:00:00 9,4 6,7 0,0
13.02.2019 18:00:00 9,5 6,5 0,0
13.02.2019 17:00:00 10,3 6,1 0,0
13.02.2019 16:00:00 10,2 6,3 0,0
13.02.2019 15:00:00 10,1 6,3 0,0
13.02.2019 14:00:00 10,2 6,5 0,0
13.02.2019 13:00:00 10,0 6,7 0,0
13.02.2019 12:00:00 10,2 6,7 0,0
13.02.2019 11:00:00 10,5 6,3 0,0
13.02.2019 10:00:00 10,3 6,6 0,0
13.02.2019 09:00:00 10,8 6,1 0,0
13.02.2019 08:00:00 10,9 6,1 0,0
13.02.2019 07:00:00 9,8 6,5 0,0
13.02.2019 06:00:00 10,0 7,3 0,0
13.02.2019 05:00:00 7,8 7,1 0,0
13.02.2019 04:00:00 7,7 6,7 0,0
13.02.2019 03:00:00 9,2 5,5 0,0
13.02.2019 02:00:00 5,7 1,7 0,0
13.02.2019 01:00:00 5,1 2,3 0,0
13.02.2019 00:00:00 6,0 2,4 0,0
12.02.2019 23:00:00 7,4 3,0 0,0
12.02.2019 22:00:00 8,0 3,7 0,0
12.02.2019 21:00:00 8,5 4,3 0,0
12.02.2019 20:00:00 8,6 5,0 0,0
12.02.2019 19:00:00 8,8 4,5 0,0
12.02.2019 18:00:00 9,2 4,3 0,0
12.02.2019 17:00:00 9,2 4,0 0,0
12.02.2019 16:00:00 9,8 3,8 0,0
12.02.2019 15:00:00 10,2 5,7 0,0
12.02.2019 14:00:00 10,5 6,9 0,0
12.02.2019 13:00:00 10,4 7,9 0,0
12.02.2019 12:00:00 9,6 8,2 0,0
12.02.2019 11:00:00 9,4 7,6 0,0
12.02.2019 10:00:00 9,6 6,9 0,0
12.02.2019 09:00:00 10,4 6,0 0,0
12.02.2019 08:00:00 10,2 5,4 0,0
12.02.2019 07:00:00 9,1 5,7 0,0
12.02.2019 06:00:00 6,9 6,0 0,0
12.02.2019 05:00:00 7,3 5,3 0,0
12.02.2019 04:00:00 7,7 5,0 0,0
12.02.2019 03:00:00 7,7 4,2 0,0
12.02.2019 02:00:00 7,8 3,7 0,0
12.02.2019 01:00:00 6,1 4,0 0,0
12.02.2019 00:00:00 4,6 3,7 0,0
11.02.2019 23:00:00 4,0 3,1 0,0
11.02.2019 22:00:00 3,6 2,8 0,0
11.02.2019 21:00:00 3,7 2,5 0,0
11.02.2019 20:00:00 3,8 1,5 0,0
11.02.2019 19:00:00 4,1 -0,4 0,0
11.02.2019 18:00:00 3,6 -0,6 0,0
11.02.2019 17:00:00 3,3 -0,7 0,0
11.02.2019 16:00:00 4,2 -1,8 0,0
11.02.2019 15:00:00 4,5 -1,3 0,0
11.02.2019 14:00:00 4,6 -0,6 0,0
11.02.2019 13:00:00 4,6 0,3 0,0
11.02.2019 12:00:00 3,4 -0,1 0,0
11.02.2019 11:00:00 2,6 0,0 0,0
11.02.2019 10:00:00 -0,4 -1,1 0,0
11.02.2019 09:00:00 -0,9 -1,2 0,0
11.02.2019 08:00:00 -1,9 -2,6 0,0
11.02.2019 07:00:00 -1,1 -1,9 0,0
11.02.2019 06:00:00 -0,4 -1,3 0,0
11.02.2019 05:00:00 0,4 -0,8 0,0
11.02.2019 04:00:00 1,3 0,0 0,0
11.02.2019 03:00:00 1,7 -0,4 0,0
11.02.2019 02:00:00 3,3 -0,1 0,0
11.02.2019 01:00:00 3,1 0,4 0,0
11.02.2019 00:00:00 3,6 0,9 0,0
10.02.2019 23:00:00 4,4 1,0 0,0
10.02.2019 22:00:00 4,3 2,5 0,0
10.02.2019 21:00:00 3,4 1,8 0,0
10.02.2019 20:00:00 3,8 1,6 0,0
10.02.2019 19:00:00 3,1 0,9 0,0
10.02.2019 18:00:00 2,9 1,1 0,0

tt = Température de l'air
td = dewpoint
rr = Quantités de précipitations

stations d'obs. à proximité